Rbgn^[z[y[W
メイン
   新天体発見情報
     Comet P/2007 R4 = 2021 U2 (Garradd)
投稿するにはまず登録を

フラット表示 前のトピック | 次のトピック
投稿者 スレッド
佐藤裕久
投稿日時: 2021-11-20 20:38
モデレータ
登録日: 2005-6-12
居住地: 日本
投稿: 2703
オンライン
Comet P/2007 R4 = 2021 U2 (Garradd)

P/2007 R4 彗星(IAUC 8870参照)が、John Drummond (Gisborne, ニュージーランド, 0.41-m 
f/4.5 ニュートン式反射望遠鏡)とTaras Prystavski (ウクライナ, iTelescope天文台, 
0.51-m f/6.8 アストログラフ, Siding Spring,リモート観測)によって検出された。
8月18日、Drummondは8月15日に行った観測で、P/2007 R4の位置の近くにあると指摘していた
が、そのうちの1つがP/2007 R4であることが確認された。
Prystavskiの観測結果を受けて、9月5日にはDrummondが一晩かけて観測した(A. Gilmoreが
P/2007 R4と暫定的に同定していたが、その後の追加観測を待たずに観測結果が出た)。
9月5日の画像では、Drummondは彗星の北側にわずかな伸びがあるかもしれないと指摘したが、
その伸びは決定的ではない。
Prystavskiによると、10月24.43日UT、輝度フィルターを通して得た4枚の120秒画像から、
ハッキリとしたコマがなく、p.a.57°に0'.3の尾らしいかすかな天体と、10月26.42日に得た
4枚の120秒画像から、再びハッキリとしたコマの形跡がないかすかな天体と、尾の気配が
ある(彗星が少し伸びているように見える)。
F. D. Romanov (Yuzhno-Morskoy, Nakhodka, ロシア)は、今回初めて(MPEC 2021-U108の
発表を受けて)8月にこの彗星の検出を試み、Siding SpringにあるiTelescope 0.50-m f/6.8 
反射望遠鏡で得た180秒CCDの画像にP/2007 R4を確認した。

検出位置は次のとおり、

     2021 UT             R.A. (2000) Decl.       Mag.   Observer
     Aug. 13.61410   22 04 27.66   -42 15 21.0   19.9   Romanov
          13.61687   22 04 27.56   -42 15 23.4   20.5     "
          15.61030   22 03 29.28   -42 38 56.6   20.2   Drummond
          15.62982   22 03 28.69   -42 39 09.6   20.3     "
          15.64825   22 03 28.01   -42 39 21.7   20.2     "
     Sept. 5.47134   21 52 38.6    -45 24 15     20.1     "
           5.48342   21 52 38.2    -45 24 17     19.9     "
           5.49470   21 52 37.9    -45 24 21     20.1     "
     Oct. 24.42847   22 07 01.96   -40 54 25.9   19.4   Prystavski
          24.43008   22 07 02.02   -40 54 24.9   19.8     "
          24.43331   22 07 02.22   -40 54 22.6            "
          26.41608   22 09 15.29   -40 27 59.0   19.4     "
          26.41944   22 09 15.49   -40 27 56.2            "

NK 1565とICQ's 2021 Comet Handbookの中野主一氏の予報に対し、Delta(T)は、-0.20 day
であった。
MPC 75708の予報に対するDelta T は、-0.19 dayであった。
彗星年表2020の佐藤裕久の参考軌道要素の修正値は、Delta(T) = -0.19 dayであった。

MPCの連結軌道要素と位置推算表は次のとおり、

Orbital elements:
    P/2007 R4 (Garradd)                                                         
Epoch 2007 Sept. 17.0 TT = JDT 2454360.5                                        
T 2007 Sept. 27.28976 TT                                Rudenko                 
q   1.9213798            (2000.0)            P               Q                  
n   0.06970824     Peri.  282.87334     +0.92359449     -0.16636169             
a   5.8471822      Node    87.50148     +0.30169488     +0.87129326             
e   0.6714007      Incl.   20.22592     -0.23654475     +0.46170536             
P  14.1                                                                         
From 99 observations 2007 Aug. 12-2021 Oct. 26, mean residual 0".9.             
                                                                                
    P/2007 R4 (Garradd)                                                         
Epoch 2021 Dec. 12.0 TT = JDT 2459560.5                                         
T 2021 Dec. 8.50597 TT                                  Rudenko                 
q   1.9576133            (2000.0)            P               Q                  
n   0.06821672     Peri.  282.59447     +0.92543424     -0.15657858             
a   5.9321052      Node    87.19258     +0.29276848     +0.87356284             
e   0.6699969      Incl.   20.20973     -0.24053708     +0.46083740             
P  14.4                                                                         
From 99 observations 2007 Aug. 12-2021 Oct. 26, mean residual 0".9.             
                                                                                
    P/2007 R4 (Garradd)                                                         
Epoch 2036 May 27.0 TT = JDT 2464840.5                                          
T 2036 May  9.41305 TT                                  Rudenko                 
q   1.9565539            (2000.0)            P               Q                  
n   0.06839043     Peri.  282.76437     +0.92511922     -0.15782474             
a   5.9220556      Node    87.10686     +0.29421033     +0.87288078             
e   0.6696157      Incl.   20.22823     -0.23998897     +0.46170391             
P  14.4                                                                         
From 99 observations 2007 Aug. 12-2021 Oct. 26, mean residual 0".9.             
                                                                                
    P/2007 R4 (Garradd)                                                         
Epoch 2021 July 5.0 TT = JDT 2459400.5                                          
T 2021 Dec. 8.52632 TT                                  Rudenko                 
q   1.9574362            (2000.0)            P               Q                  
n   0.06815761     Peri.  282.59263     +0.92537353     -0.15682485             
a   5.9355342      Node    87.20886     +0.29300026     +0.87352725             
e   0.6702174      Incl.   20.21255     -0.24048842     +0.46082112             
P  14.5                                                                         
From 99 observations 2007 Aug. 12-2021 Oct. 26, mean residual 0".9.             
                                                                                
Ephemeris:
Date    TT    R. A. (2000) Decl.     Delta      r    Elong.  Phase   m1
2021 09 27    21 49 07.2 -45 09 23   1.3606  2.0871   123.4    23.6  18.4
...
2021 10 12    21 55 45.9 -43 17 23   1.4293  2.0405   113.2    26.7  18.4
...
2021 10 20    22 02 28.6 -41 49 56   1.4729  2.0196   108.2    27.9  18.4
...
2021 10 26    22 08 46.8 -40 33 35   1.5083  2.0057   104.7    28.7  18.4
2021 10 27    22 09 55.7 -40 20 02   1.5144  2.0036   104.1    28.8  18.4
2021 10 28    22 11 06.1 -40 06 15   1.5206  2.0015   103.5    28.9  18.4
...
2021 11 03    22 18 39.6 -38 38 55   1.5586  1.9898   100.2    29.4  18.5
...
2021 11 11    22 29 58.9 -36 31 06   1.6122  1.9771    95.9    29.9  18.5
...
2021 11 26    22 54 07.2 -32 01 59   1.7208  1.9617    88.5    30.2  18.6

(MPEC 2021-U108、CBET 5061、oaa-comet 2405)

フラット表示 前のトピック | 次のトピック

題名 投稿者 日時
 » Comet P/2007 R4 = 2021 U2 (Garradd) 佐藤裕久 2021-11-20 20:38

投稿するにはまず登録を
 
© 1999 Tsutomu Seki.